Time,TemperatureF,DewpointF,PressureIn,WindDirection,WindDirectionDegrees,WindSpeedMPH,WindSpeedGustMPH,Humidity,HourlyPrecipIn,Conditions,Clouds,dailyrainin,SoftwareType,DateUTC
2013-05-05 00:00:00,52.8,19.8,29.83,NNW,332,0.0,0.0,27,0.00,,CLR,0.00,VWS V13.01,2013-05-05 07:00:00,
2013-05-05 00:05:00,52.5,16.8,29.84,North,10,0.0,3.0,24,0.00,,CLR,0.00,VWS V13.01,2013-05-05 07:05:00,
2013-05-05 00:10:00,52.2,13.5,29.84,North,10,0.0,3.0,21,0.00,,CLR,0.00,VWS V13.01,2013-05-05 07:10:00,
2013-05-05 00:15:00,52.0,9.8,29.84,North,10,0.0,0.0,18,0.00,,CLR,0.00,VWS V13.01,2013-05-05 07:15:00,
2013-05-05 00:20:00,51.7,4.1,29.84,North,10,0.0,0.0,14,0.00,,CLR,0.00,VWS V13.01,2013-05-05 07:20:00,
2013-05-05 00:25:00,51.4,-5.5,29.84,North,10,0.0,0.0,9,0.00,,CLR,0.00,VWS V13.01,2013-05-05 07:25:00,
2013-05-05 00:31:00,51.2,-13.9,29.84,North,10,0.0,1.0,6,0.00,,CLR,0.00,VWS V13.01,2013-05-05 07:31:00,
2013-05-05 00:36:00,51.2,6.6,29.84,North,355,0.0,2.0,16,0.00,,CLR,0.00,VWS V13.01,2013-05-05 07:36:00,
2013-05-05 00:41:00,51.2,5.2,29.84,North,355,0.0,2.0,15,0.00,,CLR,0.00,VWS V13.01,2013-05-05 07:41:00,
2013-05-05 00:46:00,51.1,-8.2,29.84,North,351,0.0,1.0,8,0.00,,CLR,0.00,VWS V13.01,2013-05-05 07:46:00,
2013-05-05 00:51:00,50.8,-22.0,29.84,North,355,0.0,1.0,4,0.00,,CLR,0.00,VWS V13.01,2013-05-05 07:51:00,
2013-05-05 00:56:00,50.6,0.0,29.84,North,355,0.0,1.0,0,0.00,,CLR,0.00,VWS V13.01,2013-05-05 07:56:00,
2013-05-05 01:01:00,50.6,0.0,29.84,North,355,0.0,0.0,0,0.00,,CLR,0.00,VWS V13.01,2013-05-05 08:01:00,
2013-05-05 01:06:00,50.4,0.0,29.84,North,355,0.0,2.0,0,0.00,,CLR,0.00,VWS V13.01,2013-05-05 08:06:00,
2013-05-05 01:11:00,50.2,0.0,29.84,North,355,0.0,2.0,0,0.00,,CLR,0.00,VWS V13.01,2013-05-05 08:11:00,
2013-05-05 01:16:00,50.0,0.0,29.84,North,355,0.0,0.0,0,0.00,,CLR,0.00,VWS V13.01,2013-05-05 08:16:00,
2013-05-05 01:21:00,50.0,0.0,29.84,North,355,0.0,1.0,0,0.00,,CLR,0.00,VWS V13.01,2013-05-05 08:21:00,
2013-05-05 01:27:00,49.9,0.0,29.84,North,355,0.0,1.0,0,0.00,,CLR,0.00,VWS V13.01,2013-05-05 08:27:00,
2013-05-05 01:32:00,49.8,0.0,29.84,North,355,0.0,0.0,0,0.00,,CLR,0.00,VWS V13.01,2013-05-05 08:32:00,
2013-05-05 01:37:00,49.6,0.0,29.83,North,355,0.0,0.0,0,0.00,,CLR,0.00,VWS V13.01,2013-05-05 08:37:00,
2013-05-05 01:42:00,49.4,0.0,29.83,North,355,0.0,0.0,0,0.00,,CLR,0.00,VWS V13.01,2013-05-05 08:42:00,
2013-05-05 01:47:00,49.2,0.0,29.83,North,355,0.0,0.0,0,0.00,,CLR,0.00,VWS V13.01,2013-05-05 08:47:00,
2013-05-05 01:52:00,49.0,0.0,29.83,North,355,0.0,0.0,0,0.00,,CLR,0.00,VWS V13.01,2013-05-05 08:52:00,
2013-05-05 01:57:00,48.8,0.0,29.83,North,355,0.0,0.0,0,0.00,,CLR,0.00,VWS V13.01,2013-05-05 08:57:00,
2013-05-05 02:02:00,48.6,0.0,29.83,North,355,0.0,0.0,0,0.00,,CLR,0.00,VWS V13.01,2013-05-05 09:02:00,
2013-05-05 02:07:00,48.5,0.0,29.83,North,355,0.0,0.0,0,0.00,,CLR,0.00,VWS V13.01,2013-05-05 09:07:00,
2013-05-05 02:12:00,48.3,0.0,29.83,North,355,0.0,0.0,0,0.00,,CLR,0.00,VWS V13.01,2013-05-05 09:12:00,
2013-05-05 02:17:00,48.2,0.0,29.82,North,355,0.0,0.0,0,0.00,,CLR,0.00,VWS V13.01,2013-05-05 09:17:00,
2013-05-05 02:23:00,48.0,0.0,29.83,North,355,0.0,0.0,0,0.00,,CLR,0.00,VWS V13.01,2013-05-05 09:23:00,
2013-05-05 02:28:00,47.9,0.0,29.83,North,355,0.0,0.0,0,0.00,,CLR,0.00,VWS V13.01,2013-05-05 09:28:00,
2013-05-05 02:33:00,47.7,0.0,29.82,North,355,0.0,0.0,0,0.00,,CLR,0.00,VWS V13.01,2013-05-05 09:33:00,
2013-05-05 02:38:00,47.6,0.0,29.82,North,355,0.0,0.0,0,0.00,,CLR,0.00,VWS V13.01,2013-05-05 09:38:00,
2013-05-05 02:43:00,47.5,0.0,29.82,North,355,0.0,0.0,0,0.00,,CLR,0.00,VWS V13.01,2013-05-05 09:43:00,
2013-05-05 02:48:00,47.4,0.0,29.82,North,355,0.0,0.0,0,0.00,,CLR,0.00,VWS V13.01,2013-05-05 09:48:00,
2013-05-05 02:53:00,47.3,0.0,29.82,North,355,0.0,0.0,0,0.00,,CLR,0.00,VWS V13.01,2013-05-05 09:53:00,
2013-05-05 02:58:00,47.3,0.0,29.82,North,355,0.0,1.0,0,0.00,,CLR,0.00,VWS V13.01,2013-05-05 09:58:00,
2013-05-05 03:03:00,47.1,0.0,29.82,North,355,0.0,0.0,0,0.00,,CLR,0.00,VWS V13.01,2013-05-05 10:03:00,
2013-05-05 03:08:00,47.1,0.0,29.82,North,355,0.0,0.0,0,0.00,,CLR,0.00,VWS V13.01,2013-05-05 10:08:00,
2013-05-05 03:13:00,47.1,0.0,29.82,North,355,1.0,1.0,0,0.00,,CLR,0.00,VWS V13.01,2013-05-05 10:13:00,
2013-05-05 03:18:00,47.1,0.0,29.81,North,355,0.0,0.0,0,0.00,,CLR,0.00,VWS V13.01,2013-05-05 10:18:00,
2013-05-05 03:24:00,47.0,0.0,29.81,North,355,0.0,0.0,0,0.00,,CLR,0.00,VWS V13.01,2013-05-05 10:24:00,
2013-05-05 03:29:00,46.9,0.0,29.81,North,355,0.0,0.0,0,0.00,,CLR,0.00,VWS V13.01,2013-05-05 10:29:00,
2013-05-05 03:34:00,46.7,0.0,29.81,North,355,0.0,0.0,0,0.00,,CLR,0.00,VWS V13.01,2013-05-05 10:34:00,
2013-05-05 03:39:00,46.5,0.0,29.81,North,355,0.0,0.0,0,0.00,,CLR,0.00,VWS V13.01,2013-05-05 10:39:00,
2013-05-05 03:44:00,46.4,0.0,29.81,North,355,0.0,0.0,0,0.00,,CLR,0.00,VWS V13.01,2013-05-05 10:44:00,
2013-05-05 03:49:00,46.3,0.0,29.81,North,355,0.0,0.0,0,0.00,,CLR,0.00,VWS V13.01,2013-05-05 10:49:00,
2013-05-05 03:54:00,46.1,0.0,29.81,North,355,0.0,0.0,0,0.00,,CLR,0.00,VWS V13.01,2013-05-05 10:54:00,
2013-05-05 03:59:00,46.1,0.0,29.81,North,355,0.0,0.0,0,0.00,,CLR,0.00,VWS V13.01,2013-05-05 10:59:00,
2013-05-05 04:04:00,46.1,0.0,29.81,North,355,0.0,0.0,0,0.00,,CLR,0.00,VWS V13.01,2013-05-05 11:04:00,
2013-05-05 04:09:00,46.1,0.0,29.81,North,355,0.0,1.0,0,0.00,,CLR,0.00,VWS V13.01,2013-05-05 11:09:00,
2013-05-05 04:14:00,46.0,0.0,29.81,North,355,0.0,0.0,0,0.00,,CLR,0.00,VWS V13.01,2013-05-05 11:14:00,
2013-05-05 04:20:00,45.9,0.0,29.81,North,355,0.0,0.0,0,0.00,,CLR,0.00,VWS V13.01,2013-05-05 11:20:00,
2013-05-05 04:25:00,45.7,0.0,29.81,North,355,0.0,0.0,0,0.00,,CLR,0.00,VWS V13.01,2013-05-05 11:25:00,
2013-05-05 04:30:00,45.6,0.0,29.81,North,355,0.0,0.0,0,0.00,,CLR,0.00,VWS V13.01,2013-05-05 11:30:00,
2013-05-05 04:35:00,45.5,0.0,29.81,North,355,0.0,0.0,0,0.00,,CLR,0.00,VWS V13.01,2013-05-05 11:35:00,
2013-05-05 04:40:00,45.3,0.0,29.81,North,355,0.0,0.0,0,0.00,,CLR,0.00,VWS V13.01,2013-05-05 11:40:00,
2013-05-05 04:45:00,45.3,0.0,29.81,North,355,0.0,0.0,0,0.00,,CLR,0.00,VWS V13.01,2013-05-05 11:45:00,
2013-05-05 04:50:00,45.2,0.0,29.81,North,355,0.0,0.0,0,0.00,,CLR,0.00,VWS V13.01,2013-05-05 11:50:00,
2013-05-05 04:55:00,45.1,0.0,29.80,North,355,0.0,0.0,0,0.00,,CLR,0.00,VWS V13.01,2013-05-05 11:55:00,
2013-05-05 05:00:00,44.9,0.0,29.80,North,355,0.0,0.0,0,0.00,,CLR,0.00,VWS V13.01,2013-05-05 12:00:00,
2013-05-05 05:05:00,44.8,0.0,29.81,North,355,0.0,0.0,0,0.00,,CLR,0.00,VWS V13.01,2013-05-05 12:05:00,
2013-05-05 05:11:00,44.7,0.0,29.80,North,355,0.0,0.0,0,0.00,,CLR,0.00,VWS V13.01,2013-05-05 12:11:00,
2013-05-05 05:16:00,44.6,0.0,29.80,North,355,0.0,0.0,0,0.00,,CLR,0.00,VWS V13.01,2013-05-05 12:16:00,
2013-05-05 05:21:00,44.5,0.0,29.80,North,355,0.0,0.0,0,0.00,,CLR,0.00,VWS V13.01,2013-05-05 12:21:00,
2013-05-05 05:26:00,44.3,0.0,29.80,North,355,0.0,0.0,0,0.00,,CLR,0.00,VWS V13.01,2013-05-05 12:26:00,
2013-05-05 05:31:00,44.2,0.0,29.80,North,355,0.0,0.0,0,0.00,,CLR,0.00,VWS V13.01,2013-05-05 12:31:00,
2013-05-05 05:36:00,44.1,0.0,29.80,North,355,0.0,0.0,0,0.00,,CLR,0.00,VWS V13.01,2013-05-05 12:36:00,
2013-05-05 05:41:00,44.1,0.0,29.79,North,355,0.0,0.0,0,0.00,,CLR,0.00,VWS V13.01,2013-05-05 12:41:00,
2013-05-05 05:46:00,44.1,0.0,29.79,North,355,0.0,0.0,0,0.00,,CLR,0.00,VWS V13.01,2013-05-05 12:46:00,
2013-05-05 05:51:00,44.1,0.0,29.79,North,355,0.0,0.0,0,0.00,,CLR,0.00,VWS V13.01,2013-05-05 12:51:00,
2013-05-05 05:56:00,43.9,0.0,29.79,North,355,0.0,0.0,0,0.00,,CLR,0.00,VWS V13.01,2013-05-05 12:56:00,
2013-05-05 06:01:00,43.7,0.0,29.79,North,355,0.0,0.0,0,0.00,,CLR,0.00,VWS V13.01,2013-05-05 13:01:00,
2013-05-05 06:06:00,43.6,0.0,29.79,North,355,0.0,0.0,0,0.00,,CLR,0.00,VWS V13.01,2013-05-05 13:06:00,
2013-05-05 06:12:00,43.7,0.0,29.79,North,355,0.0,1.0,0,0.00,,CLR,0.00,VWS V13.01,2013-05-05 13:12:00,
2013-05-05 06:17:00,43.7,0.0,29.79,North,355,0.0,0.0,0,0.00,,CLR,0.00,VWS V13.01,2013-05-05 13:17:00,
2013-05-05 06:22:00,43.7,0.0,29.79,North,355,0.0,0.0,0,0.00,,CLR,0.00,VWS V13.01,2013-05-05 13:22:00,
2013-05-05 06:27:00,43.5,0.0,29.79,North,355,0.0,0.0,0,0.00,,CLR,0.00,VWS V13.01,2013-05-05 13:27:00,
2013-05-05 06:32:00,43.4,0.0,29.79,North,355,0.0,0.0,0,0.00,,CLR,0.00,VWS V13.01,2013-05-05 13:32:00,
2013-05-05 06:37:00,43.4,0.0,29.79,North,355,0.0,0.0,0,0.00,,CLR,0.00,VWS V13.01,2013-05-05 13:37:00,
2013-05-05 06:42:00,43.4,0.0,29.79,North,355,0.0,0.0,0,0.00,,CLR,0.00,VWS V13.01,2013-05-05 13:42:00,
2013-05-05 06:47:00,43.6,0.0,29.79,North,355,0.0,0.0,0,0.00,,CLR,0.00,VWS V13.01,2013-05-05 13:47:00,
2013-05-05 06:52:00,43.6,0.0,29.79,North,355,0.0,0.0,0,0.00,,CLR,0.00,VWS V13.01,2013-05-05 13:52:00,
2013-05-05 06:57:00,43.6,0.0,29.79,North,355,0.0,0.0,0,0.00,,CLR,0.00,VWS V13.01,2013-05-05 13:57:00,
2013-05-05 07:02:00,43.5,0.0,29.79,North,355,0.0,0.0,0,0.00,,CLR,0.00,VWS V13.01,2013-05-05 14:02:00,
2013-05-05 07:08:00,43.4,0.0,29.79,North,355,0.0,0.0,0,0.00,,CLR,0.00,VWS V13.01,2013-05-05 14:08:00,
2013-05-05 07:13:00,43.5,0.0,29.79,North,355,0.0,0.0,0,0.00,,CLR,0.00,VWS V13.01,2013-05-05 14:13:00,
2013-05-05 07:18:00,43.7,0.0,29.79,North,355,0.0,0.0,0,0.00,,CLR,0.00,VWS V13.01,2013-05-05 14:18:00,
2013-05-05 07:23:00,43.8,0.0,29.79,North,9,2.0,3.0,0,0.00,,CLR,0.00,VWS V13.01,2013-05-05 14:23:00,
2013-05-05 07:28:00,44.0,0.0,29.79,North,9,0.0,3.0,0,0.00,,CLR,0.00,VWS V13.01,2013-05-05 14:28:00,
2013-05-05 07:33:00,44.2,0.0,29.79,North,9,0.0,1.0,0,0.00,,CLR,0.00,VWS V13.01,2013-05-05 14:33:00,
2013-05-05 07:38:00,44.2,0.0,29.79,North,9,0.0,1.0,0,0.00,,CLR,0.00,VWS V13.01,2013-05-05 14:38:00,
2013-05-05 07:43:00,44.2,0.0,29.79,North,9,0.0,1.0,0,0.00,,CLR,0.00,VWS V13.01,2013-05-05 14:43:00,
2013-05-05 07:48:00,44.4,0.0,29.78,North,9,0.0,0.0,0,0.00,,CLR,0.00,VWS V13.01,2013-05-05 14:48:00,
2013-05-05 07:53:00,45.0,0.0,29.78,North,9,0.0,0.0,0,0.00,,CLR,0.00,VWS V13.01,2013-05-05 14:53:00,
2013-05-05 07:58:00,45.9,0.0,29.78,NNE,17,0.0,3.0,0,0.00,,CLR,0.00,VWS V13.01,2013-05-05 14:58:00,
2013-05-05 08:04:00,46.5,0.0,29.78,NNE,21,0.0,3.0,0,0.00,,CLR,0.00,VWS V13.01,2013-05-05 15:04:00,
2013-05-05 08:09:00,47.1,0.0,29.78,North,355,0.0,3.0,0,0.00,,CLR,0.00,VWS V13.01,2013-05-05 15:09:00,
2013-05-05 08:14:00,47.9,0.0,29.78,North,355,0.0,3.0,0,0.00,,CLR,0.00,VWS V13.01,2013-05-05 15:14:00,
2013-05-05 08:19:00,48.3,0.0,29.77,North,355,0.0,0.0,0,0.00,,CLR,0.00,VWS V13.01,2013-05-05 15:19:00,
2013-05-05 08:24:00,48.7,0.0,29.77,North,355,0.0,0.0,0,0.00,,CLR,0.00,VWS V13.01,2013-05-05 15:24:00,
2013-05-05 08:29:00,49.7,0.0,29.77,East,100,1.0,2.0,0,0.00,,CLR,0.00,VWS V13.01,2013-05-05 15:29:00,
2013-05-05 08:34:00,50.1,0.0,29.77,East,88,0.0,2.0,0,0.00,,CLR,0.00,VWS V13.01,2013-05-05 15:34:00,
2013-05-05 08:39:00,51.3,0.0,29.77,North,9,0.0,2.0,0,0.00,,CLR,0.00,VWS V13.01,2013-05-05 15:39:00,
2013-05-05 08:44:00,52.1,0.0,29.76,NNE,19,0.0,0.0,0,0.00,,CLR,0.00,VWS V13.01,2013-05-05 15:44:00,
2013-05-05 08:49:00,53.2,0.0,29.76,NE,47,0.0,3.0,0,0.00,,CLR,0.00,VWS V13.01,2013-05-05 15:49:00,
2013-05-05 08:54:00,53.9,-3.6,29.76,NE,47,0.0,3.0,9,0.00,,CLR,0.00,VWS V13.01,2013-05-05 15:54:00,
2013-05-05 09:00:00,54.7,23.9,29.76,East,92,0.0,2.0,30,0.00,,CLR,0.00,VWS V13.01,2013-05-05 16:00:00,
2013-05-05 09:05:00,55.7,23.1,29.76,East,92,0.0,2.0,28,0.00,,CLR,0.00,VWS V13.01,2013-05-05 16:05:00,
2013-05-05 09:10:00,56.7,29.4,29.76,SSE,149,1.0,3.0,35,0.00,,CLR,0.00,VWS V13.01,2013-05-05 16:10:00,
2013-05-05 09:15:00,57.6,27.2,29.75,NW,315,1.0,4.0,31,0.00,,CLR,0.00,VWS V13.01,2013-05-05 16:15:00,
2013-05-05 09:20:00,58.6,39.5,29.75,NE,44,3.0,4.0,49,0.00,,CLR,0.00,VWS V13.01,2013-05-05 16:20:00,
2013-05-05 09:25:00,59.5,48.5,29.75,NE,46,11.0,14.0,67,0.00,,CLR,0.00,VWS V13.01,2013-05-05 16:25:00,
2013-05-05 09:30:00,65.1,48.5,29.74,NE,43,4.0,4.0,55,0.00,,CLR,0.00,VWS V13.01,2013-05-05 16:30:00,
2013-05-05 09:35:00,67.1,50.9,29.74,SE,128,2.0,12.0,56,0.00,,CLR,0.00,VWS V13.01,2013-05-05 16:35:00,
2013-05-05 09:40:00,67.8,49.0,29.74,East,82,2.0,12.0,51,0.00,,CLR,0.00,VWS V13.01,2013-05-05 16:40:00,
2013-05-05 09:45:00,68.6,47.6,29.74,NNE,32,4.0,7.0,47,0.00,,CLR,0.00,VWS V13.01,2013-05-05 16:45:00,
2013-05-05 09:50:00,70.3,43.5,29.74,NNW,348,3.0,13.0,38,0.00,,CLR,0.00,VWS V13.01,2013-05-05 16:50:00,
2013-05-05 09:56:00,71.9,44.2,29.74,ENE,59,3.0,13.0,37,0.00,,CLR,0.00,VWS V13.01,2013-05-05 16:56:00,
2013-05-05 10:01:00,71.7,48.7,29.74,NE,44,4.0,4.0,44,0.00,,CLR,0.00,VWS V13.01,2013-05-05 17:01:00,
2013-05-05 10:06:00,72.2,45.9,29.74,NE,48,5.0,13.0,39,0.00,,CLR,0.00,VWS V13.01,2013-05-05 17:06:00,
2013-05-05 10:11:00,73.3,44.0,29.74,ENE,65,11.0,15.0,35,0.00,,CLR,0.00,VWS V13.01,2013-05-05 17:11:00,
2013-05-05 10:16:00,73.9,42.2,29.74,North,350,2.0,10.0,32,0.00,,CLR,0.00,VWS V13.01,2013-05-05 17:16:00,
2013-05-05 10:21:00,74.4,44.2,29.73,East,89,2.0,10.0,34,0.00,,CLR,0.00,VWS V13.01,2013-05-05 17:21:00,
2013-05-05 10:26:00,74.5,43.5,29.73,NNE,32,8.0,12.0,33,0.00,,CLR,0.00,VWS V13.01,2013-05-05 17:26:00,
2013-05-05 10:31:00,75.0,43.2,29.73,NE,50,10.0,11.0,32,0.00,,CLR,0.00,VWS V13.01,2013-05-05 17:31:00,
2013-05-05 10:36:00,75.3,44.2,29.74,SSE,161,2.0,11.0,33,0.00,,CLR,0.00,VWS V13.01,2013-05-05 17:36:00,
2013-05-05 10:41:00,75.6,43.7,29.73,NE,44,2.0,12.0,32,0.00,,CLR,0.00,VWS V13.01,2013-05-05 17:41:00,
2013-05-05 10:46:00,76.1,42.5,29.74,ENE,78,5.0,6.0,30,0.00,,CLR,0.00,VWS V13.01,2013-05-05 17:46:00,
2013-05-05 10:51:00,76.4,48.2,29.73,NE,53,4.0,6.0,37,0.00,,CLR,0.00,VWS V13.01,2013-05-05 17:51:00,
2013-05-05 10:57:00,76.8,41.3,29.73,East,96,3.0,6.0,28,0.00,,CLR,0.00,VWS V13.01,2013-05-05 17:57:00,
2013-05-05 11:02:00,76.6,42.9,29.73,North,5,4.0,11.0,30,0.00,,CLR,0.00,VWS V13.01,2013-05-05 18:02:00,
2013-05-05 11:07:00,77.0,44.9,29.73,NNE,19,0.0,17.0,32,0.00,,CLR,0.00,VWS V13.01,2013-05-05 18:07:00,
2013-05-05 11:12:00,77.0,44.1,29.73,NE,55,4.0,17.0,31,0.00,,CLR,0.00,VWS V13.01,2013-05-05 18:12:00,
2013-05-05 11:17:00,76.9,44.0,29.73,East,93,4.0,11.0,31,0.00,,CLR,0.00,VWS V13.01,2013-05-05 18:17:00,
2013-05-05 11:22:00,77.5,40.9,29.73,North,5,4.0,15.0,27,0.00,,CLR,0.00,VWS V13.01,2013-05-05 18:22:00,
2013-05-05 11:27:00,78.1,42.4,29.72,NE,55,8.0,15.0,28,0.00,,CLR,0.00,VWS V13.01,2013-05-05 18:27:00,
2013-05-05 11:32:00,77.8,43.0,29.72,NE,56,5.0,13.0,29,0.00,,CLR,0.00,VWS V13.01,2013-05-05 18:32:00,
2013-05-05 11:37:00,77.9,40.3,29.72,East,80,4.0,13.0,26,0.00,,CLR,0.00,VWS V13.01,2013-05-05 18:37:00,
2013-05-05 11:42:00,78.2,41.5,29.72,West,269,2.0,13.0,27,0.00,,CLR,0.00,VWS V13.01,2013-05-05 18:42:00,
2013-05-05 11:47:00,78.4,42.6,29.72,East,99,6.0,7.0,28,0.00,,CLR,0.00,VWS V13.01,2013-05-05 18:47:00,
2013-05-05 11:53:00,78.4,41.7,29.72,NW,323,2.0,16.0,27,0.00,,CLR,0.00,VWS V13.01,2013-05-05 18:53:00,
2013-05-05 11:58:00,78.0,43.2,29.72,NE,46,6.0,16.0,29,0.00,,CLR,0.00,VWS V13.01,2013-05-05 18:58:00,
2013-05-05 12:03:00,78.0,42.3,29.72,NE,36,6.0,17.0,28,0.00,,CLR,0.00,VWS V13.01,2013-05-05 19:03:00,
2013-05-05 12:08:00,78.4,42.6,29.71,East,82,9.0,19.0,28,0.00,,CLR,0.00,VWS V13.01,2013-05-05 19:08:00,
2013-05-05 12:13:00,78.5,43.6,29.71,North,355,9.0,19.0,29,0.00,,CLR,0.00,VWS V13.01,2013-05-05 19:13:00,
2013-05-05 12:18:00,79.2,42.4,29.71,ENE,73,7.0,12.0,27,0.00,,CLR,0.00,VWS V13.01,2013-05-05 19:18:00,
2013-05-05 12:23:00,79.3,43.4,29.70,SSE,161,4.0,13.0,28,0.00,,CLR,0.00,VWS V13.01,2013-05-05 19:23:00,
2013-05-05 12:28:00,79.5,43.6,29.70,SE,136,13.0,16.0,28,0.00,,CLR,0.00,VWS V13.01,2013-05-05 19:28:00,
2013-05-05 12:33:00,79.5,43.6,29.70,ENE,76,12.0,22.0,28,0.00,,CLR,0.00,VWS V13.01,2013-05-05 19:33:00,
2013-05-05 12:38:00,79.2,44.2,29.70,NE,36,9.0,22.0,29,0.00,,CLR,0.00,VWS V13.01,2013-05-05 19:38:00,
2013-05-05 12:43:00,79.4,41.6,29.70,NE,40,8.0,22.0,26,0.00,,CLR,0.00,VWS V13.01,2013-05-05 19:43:00,
2013-05-05 12:48:00,79.4,42.5,29.69,ESE,118,4.0,13.0,27,0.00,,CLR,0.00,VWS V13.01,2013-05-05 19:48:00,
2013-05-05 12:54:00,80.0,42.1,29.69,ESE,103,3.0,13.0,26,0.00,,CLR,0.00,VWS V13.01,2013-05-05 19:54:00,
2013-05-05 12:59:00,80.4,45.3,29.69,NE,39,10.0,13.0,29,0.00,,CLR,0.00,VWS V13.01,2013-05-05 19:59:00,
2013-05-05 13:04:00,80.5,42.5,29.68,SE,132,3.0,13.0,26,0.00,,CLR,0.00,VWS V13.01,2013-05-05 20:04:00,
2013-05-05 13:09:00,80.6,43.6,29.69,East,93,5.0,19.0,27,0.00,,CLR,0.00,VWS V13.01,2013-05-05 20:09:00,
2013-05-05 13:14:00,80.6,43.6,29.69,SW,227,3.0,6.0,27,0.00,,CLR,0.00,VWS V13.01,2013-05-05 20:14:00,
2013-05-05 13:19:00,80.6,43.6,29.69,NE,51,7.0,18.0,27,0.00,,CLR,0.00,VWS V13.01,2013-05-05 20:19:00,
2013-05-05 13:24:00,80.6,45.4,29.68,ENE,61,6.0,18.0,29,0.00,,CLR,0.00,VWS V13.01,2013-05-05 20:24:00,
2013-05-05 13:29:00,81.1,44.0,29.69,ENE,64,10.0,12.0,27,0.00,,CLR,0.00,VWS V13.01,2013-05-05 20:29:00,
2013-05-05 13:34:00,81.4,44.2,29.68,ESE,109,0.0,12.0,27,0.00,,CLR,0.00,VWS V13.01,2013-05-05 20:34:00,
2013-05-05 13:39:00,81.8,47.4,29.68,SE,124,2.0,12.0,30,0.00,,CLR,0.00,VWS V13.01,2013-05-05 20:39:00,
2013-05-05 13:45:00,81.6,43.4,29.68,NE,46,3.0,7.0,26,0.00,,CLR,0.00,VWS V13.01,2013-05-05 20:45:00,
2013-05-05 13:50:00,81.8,42.6,29.68,ENE,72,3.0,14.0,25,0.00,,CLR,0.00,VWS V13.01,2013-05-05 20:50:00,
2013-05-05 13:55:00,81.6,43.4,29.67,NE,42,2.0,14.0,26,0.00,,CLR,0.00,VWS V13.01,2013-05-05 20:55:00,
2013-05-05 14:00:00,81.8,43.6,29.68,NE,47,11.0,16.0,26,0.00,,CLR,0.00,VWS V13.01,2013-05-05 21:00:00,
2013-05-05 14:05:00,81.4,47.0,29.67,SE,145,3.0,16.0,30,0.00,,CLR,0.00,VWS V13.01,2013-05-05 21:05:00,
2013-05-05 14:10:00,82.0,50.1,29.67,NE,39,10.0,17.0,33,0.00,,CLR,0.00,VWS V13.01,2013-05-05 21:10:00,
2013-05-05 14:15:00,81.8,42.6,29.67,East,101,1.0,4.0,25,0.00,,CLR,0.00,VWS V13.01,2013-05-05 21:15:00,
2013-05-05 14:20:00,82.2,43.9,29.67,North,355,7.0,15.0,26,0.00,,CLR,0.00,VWS V13.01,2013-05-05 21:20:00,
2013-05-05 14:25:00,82.5,43.2,29.67,WSW,250,1.0,15.0,25,0.00,,CLR,0.00,VWS V13.01,2013-05-05 21:25:00,
2013-05-05 14:30:00,83.0,43.6,29.67,NNE,29,5.0,7.0,25,0.00,,CLR,0.00,VWS V13.01,2013-05-05 21:30:00,
2013-05-05 14:35:00,82.8,44.5,29.67,NE,53,9.0,17.0,26,0.00,,CLR,0.00,VWS V13.01,2013-05-05 21:35:00,
2013-05-05 14:40:00,82.7,42.3,29.67,SE,131,3.0,17.0,24,0.00,,CLR,0.00,VWS V13.01,2013-05-05 21:40:00,
2013-05-05 14:46:00,83.1,44.7,29.67,NNE,13,3.0,11.0,26,0.00,,CLR,0.00,VWS V13.01,2013-05-05 21:46:00,
2013-05-05 14:51:00,83.6,45.1,29.67,NNE,30,6.0,11.0,26,0.00,,CLR,0.00,VWS V13.01,2013-05-05 21:51:00,
2013-05-05 14:56:00,83.6,44.1,29.67,NE,39,6.0,11.0,25,0.00,,CLR,0.00,VWS V13.01,2013-05-05 21:56:00,
2013-05-05 15:01:00,83.3,45.9,29.67,ENE,57,2.0,3.0,27,0.00,,CLR,0.00,VWS V13.01,2013-05-05 22:01:00,
2013-05-05 15:06:00,83.4,46.9,29.66,NNW,344,1.0,9.0,28,0.00,,CLR,0.00,VWS V13.01,2013-05-05 22:06:00,
2013-05-05 15:11:00,83.5,46.0,29.66,East,84,9.0,9.0,27,0.00,,CLR,0.00,VWS V13.01,2013-05-05 22:11:00,
2013-05-05 15:16:00,83.5,46.0,29.66,NNW,331,3.0,10.0,27,0.00,,CLR,0.00,VWS V13.01,2013-05-05 22:16:00,
2013-05-05 15:21:00,83.7,44.2,29.66,West,263,1.0,10.0,25,0.00,,CLR,0.00,VWS V13.01,2013-05-05 22:21:00,
2013-05-05 15:26:00,84.3,44.7,29.66,West,263,0.0,10.0,25,0.00,,CLR,0.00,VWS V13.01,2013-05-05 22:26:00,
2013-05-05 15:31:00,84.4,47.8,29.66,NE,34,4.0,6.0,28,0.00,,CLR,0.00,VWS V13.01,2013-05-05 22:31:00,
2013-05-05 15:37:00,84.1,44.5,29.66,NE,37,1.0,7.0,25,0.00,,CLR,0.00,VWS V13.01,2013-05-05 22:37:00,
2013-05-05 15:42:00,84.3,46.7,29.66,ENE,78,6.0,13.0,27,0.00,,CLR,0.00,VWS V13.01,2013-05-05 22:42:00,
2013-05-05 15:47:00,84.3,46.7,29.65,ENE,61,0.0,10.0,27,0.00,,CLR,0.00,VWS V13.01,2013-05-05 22:47:00,
2013-05-05 15:52:00,84.3,49.5,29.65,NNE,30,2.0,10.0,30,0.00,,FEW060,0.00,VWS V13.01,2013-05-05 22:52:00,
2013-05-05 15:57:00,83.8,47.2,29.65,NE,55,3.0,10.0,28,0.00,,FEW060,0.00,VWS V13.01,2013-05-05 22:57:00,
2013-05-05 16:02:00,83.5,46.0,29.65,NNE,30,1.0,7.0,27,0.00,,FEW060,0.00,VWS V13.01,2013-05-05 23:02:00,
2013-05-05 16:07:00,83.0,44.6,29.65,ENE,74,10.0,15.0,26,0.00,,FEW060,0.00,VWS V13.01,2013-05-05 23:07:00,
2013-05-05 16:12:00,83.2,45.8,29.65,East,85,4.0,15.0,27,0.00,,FEW060,0.00,VWS V13.01,2013-05-05 23:12:00,
2013-05-05 16:17:00,83.2,43.8,29.64,East,80,5.0,12.0,25,0.00,,FEW060,0.00,VWS V13.01,2013-05-05 23:17:00,
2013-05-05 16:22:00,83.1,45.7,29.64,North,360,1.0,12.0,27,0.00,,FEW060,0.00,VWS V13.01,2013-05-05 23:22:00,
2013-05-05 16:28:00,82.2,44.9,29.64,NNE,21,3.0,12.0,27,0.00,,FEW060,0.00,VWS V13.01,2013-05-05 23:28:00,
2013-05-05 16:33:00,82.1,45.8,29.64,North,9,0.0,10.0,28,0.00,,FEW060,0.00,VWS V13.01,2013-05-05 23:33:00,
2013-05-05 16:38:00,82.0,44.8,29.64,NNW,340,3.0,12.0,27,0.00,,FEW060,0.00,VWS V13.01,2013-05-05 23:38:00,
2013-05-05 16:43:00,82.0,45.7,29.64,NE,34,3.0,15.0,28,0.00,,FEW060,0.00,VWS V13.01,2013-05-05 23:43:00,
2013-05-05 16:48:00,81.7,46.4,29.64,NW,315,2.0,9.0,29,0.00,,FEW060,0.00,VWS V13.01,2013-05-05 23:48:00,
2013-05-05 16:53:00,81.5,44.3,29.63,NW,310,1.0,11.0,27,0.00,,FEW065,0.00,VWS V13.01,2013-05-05 23:53:00,
2013-05-05 16:58:00,81.5,44.3,29.64,NW,316,2.0,11.0,27,0.00,,FEW065,0.00,VWS V13.01,2013-05-05 23:58:00,
2013-05-05 17:03:00,80.9,49.9,29.63,NNW,335,4.0,10.0,34,0.00,,FEW065,0.00,VWS V13.01,2013-05-06 00:03:00,
2013-05-05 17:08:00,80.4,47.0,29.63,WNW,296,2.0,10.0,31,0.00,,FEW065,0.00,VWS V13.01,2013-05-06 00:08:00,
2013-05-05 17:13:00,80.3,46.9,29.63,WNW,296,0.0,10.0,31,0.00,,FEW065,0.00,VWS V13.01,2013-05-06 00:13:00,
2013-05-05 17:18:00,79.8,44.8,29.63,NE,40,4.0,7.0,29,0.00,,FEW065,0.00,VWS V13.01,2013-05-06 00:18:00,
2013-05-05 17:23:00,80.1,48.4,29.63,North,355,3.0,17.0,33,0.00,,FEW070,0.00,VWS V13.01,2013-05-06 00:23:00,
2013-05-05 17:28:00,79.9,44.8,29.63,NNW,333,1.0,17.0,29,0.00,,FEW070,0.00,VWS V13.01,2013-05-06 00:28:00,
2013-05-05 17:34:00,79.1,44.2,29.63,NE,50,10.0,14.0,29,0.00,,FEW070,0.00,VWS V13.01,2013-05-06 00:34:00,
2013-05-05 17:39:00,79.4,47.0,29.64,NNW,333,0.0,14.0,32,0.00,,FEW070,0.00,VWS V13.01,2013-05-06 00:39:00,
2013-05-05 17:44:00,79.1,45.0,29.64,NE,44,2.0,14.0,30,0.00,,FEW070,0.00,VWS V13.01,2013-05-06 00:44:00,
2013-05-05 17:49:00,78.9,45.7,29.64,NNE,14,0.0,2.0,31,0.00,,FEW070,0.00,VWS V13.01,2013-05-06 00:49:00,
2013-05-05 17:54:00,78.3,45.2,29.64,NW,321,0.0,13.0,31,0.00,,FEW070,0.00,VWS V13.01,2013-05-06 00:54:00,
2013-05-05 17:59:00,77.8,43.9,29.64,NNW,328,0.0,1.0,30,0.00,,FEW070,0.00,VWS V13.01,2013-05-06 00:59:00,
2013-05-05 18:04:00,77.4,51.2,29.64,West,261,0.0,2.0,40,0.00,,FEW070,0.00,VWS V13.01,2013-05-06 01:04:00,
2013-05-05 18:09:00,76.4,52.9,29.64,West,261,0.0,2.0,44,0.00,,FEW070,0.00,VWS V13.01,2013-05-06 01:09:00,
2013-05-05 18:14:00,75.1,56.8,29.64,West,261,1.0,1.0,53,0.00,,FEW070,0.00,VWS V13.01,2013-05-06 01:14:00,
2013-05-05 18:20:00,73.6,56.5,29.64,South,184,9.0,9.0,55,0.00,,FEW070,0.00,VWS V13.01,2013-05-06 01:20:00,
2013-05-05 18:25:00,73.0,50.4,29.66,SSW,200,7.0,19.0,45,0.00,,FEW070,0.00,VWS V13.01,2013-05-06 01:25:00,
2013-05-05 18:30:00,71.9,50.6,29.67,South,179,12.0,12.0,47,0.00,,FEW070,0.00,VWS V13.01,2013-05-06 01:30:00,
2013-05-05 18:35:00,69.2,50.3,29.69,South,190,6.0,15.0,51,0.00,,FEW070,0.00,VWS V13.01,2013-05-06 01:35:00,
2013-05-05 18:40:00,66.9,49.7,29.70,SSW,201,10.0,15.0,54,0.00,,FEW070,0.00,VWS V13.01,2013-05-06 01:40:00,
2013-05-05 18:45:00,64.0,48.5,29.71,SW,216,9.0,12.0,57,0.00,,FEW070,0.00,VWS V13.01,2013-05-06 01:45:00,
2013-05-05 18:50:00,62.0,48.0,29.71,SW,235,4.0,13.0,60,0.00,,SCT090,0.00,VWS V13.01,2013-05-06 01:50:00,
2013-05-05 18:55:00,60.1,46.2,29.73,South,178,9.0,17.0,60,0.00,,SCT090,0.00,VWS V13.01,2013-05-06 01:55:00,
2013-05-05 19:00:00,58.8,44.5,29.73,South,173,7.0,11.0,59,0.00,,SCT090,0.00,VWS V13.01,2013-05-06 02:00:00,
2013-05-05 19:05:00,58.1,43.0,29.74,South,173,6.0,13.0,57,0.00,,SCT090,0.00,VWS V13.01,2013-05-06 02:05:00,
2013-05-05 19:10:00,57.3,40.3,29.75,SE,138,4.0,13.0,53,0.00,,SCT090,0.00,VWS V13.01,2013-05-06 02:10:00,
2013-05-05 19:16:00,56.8,38.4,29.76,South,186,5.0,10.0,50,0.00,,SCT090,0.00,VWS V13.01,2013-05-06 02:16:00,
2013-05-05 19:21:00,56.2,35.7,29.77,SSE,155,2.0,10.0,46,0.00,,SCT090,0.00,VWS V13.01,2013-05-06 02:21:00,
2013-05-05 19:26:00,55.8,31.9,29.77,SSE,163,5.0,12.0,40,0.00,,SCT090,0.00,VWS V13.01,2013-05-06 02:26:00,
2013-05-05 19:31:00,55.5,30.3,29.77,ESE,113,6.0,9.0,38,0.00,,SCT090,0.00,VWS V13.01,2013-05-06 02:31:00,
2013-05-05 19:36:00,55.4,28.2,29.78,South,176,4.0,12.0,35,0.00,,SCT090,0.00,VWS V13.01,2013-05-06 02:36:00,
2013-05-05 19:41:00,55.3,28.8,29.79,SSE,155,4.0,12.0,36,0.00,,SCT090,0.00,VWS V13.01,2013-05-06 02:41:00,
2013-05-05 19:46:00,55.3,27.4,29.79,South,185,4.0,4.0,34,0.00,,SCT090,0.00,VWS V13.01,2013-05-06 02:46:00,
2013-05-05 19:51:00,55.3,27.4,29.79,South,173,10.0,12.0,34,0.00,,SCT100,0.00,VWS V13.01,2013-05-06 02:51:00,
2013-05-05 19:56:00,55.3,28.8,29.80,South,182,2.0,12.0,36,0.00,,SCT100,0.00,VWS V13.01,2013-05-06 02:56:00,
2013-05-05 20:01:00,55.2,27.3,29.80,SE,143,3.0,6.0,34,0.00,,SCT100,0.00,VWS V13.01,2013-05-06 03:01:00,
2013-05-05 20:06:00,55.2,27.3,29.80,SSW,196,4.0,6.0,34,0.00,,SCT100,0.00,VWS V13.01,2013-05-06 03:06:00,
2013-05-05 20:12:00,55.1,28.0,29.80,SSW,195,2.0,6.0,35,0.00,,SCT100,0.00,VWS V13.01,2013-05-06 03:12:00,
2013-05-05 20:17:00,55.2,29.4,29.81,SE,142,0.0,4.0,37,0.00,,SCT100,0.00,VWS V13.01,2013-05-06 03:17:00,
2013-05-05 20:22:00,55.1,25.0,29.81,SE,138,1.0,4.0,31,0.00,,SCT100,0.00,VWS V13.01,2013-05-06 03:22:00,
2013-05-05 20:27:00,55.0,23.4,29.81,SSW,207,0.0,4.0,29,0.00,,SCT100,0.00,VWS V13.01,2013-05-06 03:27:00,
2013-05-05 20:32:00,54.8,27.7,29.81,SSW,207,0.0,0.0,35,0.00,,SCT100,0.00,VWS V13.01,2013-05-06 03:32:00,
2013-05-05 20:37:00,54.8,23.2,29.81,SSE,150,2.0,4.0,29,0.00,,SCT100,0.00,VWS V13.01,2013-05-06 03:37:00,
2013-05-05 20:42:00,54.5,31.9,29.81,East,88,3.0,5.0,42,0.00,,SCT100,0.00,VWS V13.01,2013-05-06 03:42:00,
2013-05-05 20:47:00,54.6,26.8,29.81,NNE,19,1.0,2.0,34,0.00,,SCT100,0.00,VWS V13.01,2013-05-06 03:47:00,
2013-05-05 20:52:00,54.5,24.5,29.82,NNE,19,1.0,2.0,31,0.00,,SCT100,0.00,VWS V13.01,2013-05-06 03:52:00,
2013-05-05 20:57:00,54.2,22.6,29.82,North,360,0.0,2.0,29,0.00,,SCT100,0.00,VWS V13.01,2013-05-06 03:57:00,
2013-05-05 21:01:00,54.1,20.0,29.82,South,180,0.0,1.0,26,0.00,,SCT100,0.00,VWS V13.01,2013-05-06 04:01:00,
2013-05-05 21:02:00,54.1,19.1,29.83,South,180,0.0,1.0,25,0.00,,SCT100,0.00,VWS V13.01,2013-05-06 04:02:00,
2013-05-05 21:07:00,53.7,17.8,29.83,East,101,1.0,3.0,24,0.00,,SCT100,0.00,VWS V13.01,2013-05-06 04:07:00,
2013-05-05 21:12:00,53.9,30.1,29.83,ESE,109,0.0,5.0,40,0.00,,SCT100,0.00,VWS V13.01,2013-05-06 04:12:00,
2013-05-05 21:17:00,53.9,24.0,29.83,ESE,109,0.0,0.0,31,0.00,,SCT100,0.00,VWS V13.01,2013-05-06 04:17:00,
2013-05-05 21:22:00,53.9,22.4,29.84,ESE,109,0.0,2.0,29,0.00,,SCT100,0.00,VWS V13.01,2013-05-06 04:22:00,
2013-05-05 21:27:00,53.8,26.8,29.84,NNE,19,0.0,4.0,35,0.00,,SCT100,0.00,VWS V13.01,2013-05-06 04:27:00,
2013-05-05 21:32:00,53.8,26.8,29.84,North,5,0.0,3.0,35,0.00,,SCT100,0.00,VWS V13.01,2013-05-06 04:32:00,
2013-05-05 21:37:00,53.7,21.4,29.84,North,5,0.0,3.0,28,0.00,,SCT100,0.00,VWS V13.01,2013-05-06 04:37:00,
2013-05-05 21:43:00,53.5,20.4,29.85,North,5,0.0,3.0,27,0.00,,SCT100,0.00,VWS V13.01,2013-05-06 04:43:00,
2013-05-05 21:48:00,53.2,12.0,29.85,NW,316,0.0,2.0,19,0.00,,SCT100,0.00,VWS V13.01,2013-05-06 04:48:00,
2013-05-05 21:53:00,52.6,1.5,29.84,WNW,294,0.0,2.0,12,0.00,,SCT100,0.00,VWS V13.01,2013-05-06 04:53:00,
2013-05-05 21:58:00,52.3,-10.0,29.84,WNW,294,0.0,2.0,7,0.00,,SCT100,0.00,VWS V13.01,2013-05-06 04:58:00,
2013-05-05 22:03:00,52.2,-33.8,29.85,NE,35,1.0,3.0,2,0.00,,SCT100,0.00,VWS V13.01,2013-05-06 05:03:00,
2013-05-05 22:08:00,52.1,0.0,29.85,NE,36,0.0,3.0,0,0.00,,SCT100,0.00,VWS V13.01,2013-05-06 05:08:00,
2013-05-05 22:13:00,52.1,0.0,29.85,NNE,18,2.0,3.0,0,0.00,,SCT100,0.00,VWS V13.01,2013-05-06 05:13:00,
2013-05-05 22:18:00,51.9,0.0,29.85,NNE,18,0.0,2.0,0,0.00,,SCT100,0.00,VWS V13.01,2013-05-06 05:18:00,
2013-05-05 22:23:00,51.8,0.0,29.84,East,83,1.0,3.0,0,0.00,,SCT100,0.00,VWS V13.01,2013-05-06 05:23:00,
2013-05-05 22:28:00,51.7,0.0,29.84,NE,46,3.0,3.0,0,0.00,,SCT100,0.00,VWS V13.01,2013-05-06 05:28:00,
2013-05-05 22:33:00,51.6,0.0,29.84,NNE,22,0.0,3.0,0,0.00,,SCT100,0.00,VWS V13.01,2013-05-06 05:33:00,
2013-05-05 22:39:00,51.6,0.0,29.85,NNE,24,0.0,3.0,0,0.00,,SCT100,0.00,VWS V13.01,2013-05-06 05:39:00,
2013-05-05 22:44:00,51.6,0.0,29.84,NNE,24,0.0,3.0,0,0.00,,SCT100,0.00,VWS V13.01,2013-05-06 05:44:00,
2013-05-05 22:49:00,51.5,0.0,29.85,NNE,24,0.0,2.0,0,0.00,,SCT100,0.00,VWS V13.01,2013-05-06 05:49:00,
2013-05-05 22:54:00,51.4,0.0,29.84,NNE,24,0.0,2.0,0,0.00,,BKN110,0.00,VWS V13.01,2013-05-06 05:54:00,
2013-05-05 22:59:00,51.2,0.0,29.84,NNE,24,0.0,0.0,0,0.00,,BKN110,0.00,VWS V13.01,2013-05-06 05:59:00,
2013-05-05 23:04:00,51.0,0.0,29.84,NNE,24,0.0,0.0,0,0.00,,BKN110,0.00,VWS V13.01,2013-05-06 06:04:00,
2013-05-05 23:09:00,50.8,0.0,29.84,NNE,24,0.0,0.0,0,0.00,,BKN110,0.00,VWS V13.01,2013-05-06 06:09:00,
2013-05-05 23:14:00,50.6,0.0,29.84,NNE,24,0.0,0.0,0,0.00,,BKN110,0.00,VWS V13.01,2013-05-06 06:14:00,
2013-05-05 23:19:00,50.5,0.0,29.84,NNE,24,0.0,1.0,0,0.00,,BKN110,0.00,VWS V13.01,2013-05-06 06:19:00,
2013-05-05 23:24:00,50.4,0.0,29.84,NNE,24,0.0,1.0,0,0.00,,BKN110,0.00,VWS V13.01,2013-05-06 06:24:00,
2013-05-05 23:29:00,50.3,0.0,29.84,NNE,24,0.0,0.0,0,0.00,,BKN110,0.00,VWS V13.01,2013-05-06 06:29:00,
2013-05-05 23:35:00,50.1,0.0,29.85,NNE,24,0.0,0.0,0,0.00,,BKN110,0.00,VWS V13.01,2013-05-06 06:35:00,
2013-05-05 23:40:00,49.9,0.0,29.85,NNE,24,0.0,0.0,0,0.00,,BKN110,0.00,VWS V13.01,2013-05-06 06:40:00,
2013-05-05 23:45:00,49.8,0.0,29.84,NNE,24,0.0,0.0,0,0.00,,BKN110,0.00,VWS V13.01,2013-05-06 06:45:00,
2013-05-05 23:50:00,49.7,0.0,29.84,NNE,24,0.0,0.0,0,0.00,,SCT120,0.00,VWS V13.01,2013-05-06 06:50:00,
2013-05-05 23:55:00,49.5,0.0,29.85,NNE,24,0.0,0.0,0,0.00,,SCT120,0.00,VWS V13.01,2013-05-06 06:55:00,